Regional Weather Roundup
Issued by NWS

Home | Current Version | Previous Version | Graphics & Text | Print | Product List | Glossary On
Versions: 1 2 3 4 5 6 7 8 9 10 11 12 13 14 15 16 17 18 19 20 21 22 23 24 25 26 27 28 29 30 31 32 33 34 35 36 37 38 39 40 41 42 43 44 45 46 47 48 49 50
000
ASUS43 KOAX 041602
RWRNE

WEATHER ROUNDUP FOR NEBRASKA
NATIONAL WEATHER SERVICE OMAHA NE
1100 AM CDT WED MAY 04 2016

NOTES: SATELLITE DATA IS BEING USED TO AUGMENT CLOUD COVER ABOVE
       12000 FEET.
       "FAIR" INDICATES FEW OR NO CLOUDS BELOW 12,000 FEET WITH NO
       SIGNIFICANT WEATHER AND/OR OBSTRUCTIONS TO VISIBILITY.

  * THESE STATIONS DO NOT REPORT WEATHER SUCH AS RAIN...SNOW OR FOG.

NEZ001>004-019>022-054>056-041700-
NEBRASKA PANHANDLE

CITY           SKY/WX    TMP DP  RH WIND       PRES   REMARKS
SCOTTSBLUFF    SUNNY     63  44  50 NW5       30.20F
ALLIANCE       SUNNY     66  41  40 N7        30.19F
CHADRON        SUNNY     64  45  49 SW3       30.17F
KIMBALL        SUNNY     64  37  37 CALM      30.24S
SIDNEY         SUNNY     67  39  35 VRB5      30.22S
$$

NEZ057>060-069>072-079>082-041700-
SOUTHWEST NEBRASKA

CITY           SKY/WX    TMP DP  RH WIND       PRES   REMARKS
NORTH PLATTE   SUNNY     64  43  46 W5        30.15F
IMPERIAL       SUNNY     66  41  40 N9        30.19S
LEXINGTON      SUNNY     63  36  37 N7        30.15R
MCCOOK         SUNNY     66  39  37 CALM      30.16S
$$

NEZ005>010-023>029-035>040-094-041700-
NORTH CENTRAL NEBRASKA

CITY           SKY/WX    TMP DP  RH WIND       PRES   REMARKS
VALENTINE      SUNNY     63  31  30 VRB3      30.15F
AINSWORTH      SUNNY     62  32  32 N6        30.15S
BROKEN BOW     SUNNY     63  35  35 N12       30.13S
ORD            SUNNY     62  35  36 N14       30.11F
$$

NEZ041-046>049-061>064-073>077-083>087-041700-
SOUTH CENTRAL NEBRASKA

CITY           SKY/WX    TMP DP  RH WIND       PRES   REMARKS
GRAND ISLAND   SUNNY     61  34  36 N15       30.12S
AURORA         SUNNY     62  32  33 N15G24    30.11S
HASTINGS       SUNNY     61  33  35 N17       30.11S
KEARNEY *      SUNNY     61  36  39 N14       30.14R
YORK           SUNNY     59  37  44 N13G20    30.10S
$$

NEZ011>018-030>034-042>045-041700-
NORTHEAST NEBRASKA

CITY           SKY/WX    TMP DP  RH WIND       PRES   REMARKS
NORFOLK        SUNNY     59  37  44 N7        30.09S
ALBION         SUNNY     59  36  42 N12G18    30.11S
BLAIR          SUNNY     59  40  50 N10G17    30.06R
COLUMBUS *     SUNNY     61  36  39 NW10G17   30.10S
FREMONT        SUNNY     59  40  48 N7        30.07S
TEKAMAH        SUNNY     59  42  53 N13       30.07R
$$

NEZ050>053-065>068-078-088>093-041700-
SOUTHEAST NEBRASKA

CITY           SKY/WX    TMP DP  RH WIND       PRES   REMARKS
LINCOLN        SUNNY     63  37  38 N12       30.08S
OMAHA EPPLEY   SUNNY     61  42  49 N9        30.05S
BEATRICE       SUNNY     61  40  44 NW15      30.07S
FALLS CITY       N/A     63  42  46 N12       30.02R
$$

NEZ044-045-051>053-067-041700-
OMAHA AREA

CITY           SKY/WX    TMP DP  RH WIND       PRES   REMARKS
OMAHA EPPLEY   SUNNY     61  42  49 N9        30.05S
BLAIR          SUNNY     59  40  50 N10G17    30.06R
FREMONT        SUNNY     59  40  48 N7        30.07S
OFFUTT AFB     SUNNY     60  40  48 N7        30.04S
$$



USA.gov is the U.S. government's official web portal to all federal, state and local government web resources and services.